Location: Brunsen
(51.8651°N, 9.8610°E)
Time: 20:56:29
(UTC+00:00)

CZ-2C R/B - Pass Details

Date: 16 August 2024
Orbit: 782 x 869 km, 98.3° (Epoch: 07 September)

Event Time Altitude Azimuth Distance (km) Brightness Sun altitude
Exits shadow 22:35:10 - 91° (E) 3,369 5.7 -23.9°
Reaches altitude 10° 22:40:14 10° 50° (NE) 2,437 5.4 -24.1°
Maximum altitude 22:40:42 10° 45° (NE) 2,428 5.5 -24.1°
Drops below altitude 10° 22:41:10 10° 40° (NE) 2,433 5.6 -24.1°
Sets 22:46:14 0° 358° (N) 3,344 7.2 -24.3°
